Location: Alafon
(8.4500°N, 4.2333°E)
Time: 15:55:39
(UTC+00:00)

SR - Pass Details

Date: 04 August 2021
Orbit: 581 x 874 km, 66.7° (Epoch: 18 September)

Event Time Altitude Azimuth Distance (km) Brightness Sun altitude
Rises 04:28:45 0° 222° (SW) 3,438 - -16.4°
Reaches altitude 10° 04:31:31 10° 232° (SW) 2,513 - -15.7°
Exits shadow 04:34:06 22° 253° (WSW) 1,806 ? -15.1°
Maximum altitude 04:36:33 30° 292° (WNW) 1,515 ? -14.5°
Drops below altitude 10° 04:41:34 10° 351° (N) 2,485 ? -13.4°
Sets 04:44:18 0° 2° (N) 3,394 ? -12.7°
